Time,TemperatureF,DewpointF,PressureIn,WindDirection,WindDirectionDegrees,WindSpeedMPH,WindSpeedGustMPH,Humidity,HourlyPrecipIn,Conditions,Clouds,dailyrainin,SoftwareType,DateUTC
2013-01-23 00:03:00,23.0,8.0,30.42,SSW,201,1.0,3.0,52,0.00,,,0.00,,2013-01-23 05:03:00,
2013-01-23 00:12:00,23.0,8.0,30.42,SSW,201,1.0,3.0,52,0.00,,,0.00,,2013-01-23 05:12:00,
2013-01-23 00:23:00,23.0,8.0,30.42,SSE,149,2.0,6.0,51,0.00,,,0.00,,2013-01-23 05:23:00,
2013-01-23 00:33:00,23.0,8.0,30.42,WSW,258,4.0,10.0,52,0.00,,,0.00,,2013-01-23 05:33:00,
2013-01-23 00:43:00,23.0,8.0,30.42,WSW,258,4.0,10.0,52,0.00,,,0.00,,2013-01-23 05:43:00,
2013-01-23 00:53:00,23.0,8.0,30.42,NNW,327,1.0,7.0,51,0.00,,,0.00,,2013-01-23 05:53:00,
2013-01-23 01:03:00,23.0,8.0,30.43,West,276,0.0,3.0,52,0.00,,,0.00,,2013-01-23 06:03:00,
2013-01-23 01:12:00,23.0,8.0,30.43,West,276,0.0,3.0,52,0.00,,,0.00,,2013-01-23 06:12:00,
2013-01-23 01:22:00,23.0,8.0,30.43,SSW,210,0.0,0.0,51,0.00,,,0.00,,2013-01-23 06:22:00,
2013-01-23 01:33:00,23.0,8.0,30.43,SE,146,0.0,1.0,53,0.00,,,0.00,,2013-01-23 06:33:00,
2013-01-23 01:43:00,23.0,8.0,30.43,SE,146,0.0,1.0,53,0.00,,,0.00,,2013-01-23 06:43:00,
2013-01-23 01:53:00,23.0,10.0,30.43,ESE,113,0.0,4.0,56,0.00,,,0.00,,2013-01-23 06:53:00,
2013-01-23 02:02:00,24.0,9.0,30.44,SSE,150,2.0,11.0,52,0.00,,,0.00,,2013-01-23 07:02:00,
2013-01-23 02:13:00,24.0,9.0,30.44,SSE,150,2.0,11.0,52,0.00,,,0.00,,2013-01-23 07:13:00,
2013-01-23 02:23:00,23.0,9.0,30.44,NW,321,0.0,5.0,54,0.00,,,0.00,,2013-01-23 07:23:00,
2013-01-23 02:33:00,24.0,9.0,30.44,NE,45,0.0,2.0,53,0.00,,,0.00,,2013-01-23 07:33:00,
2013-01-23 02:42:00,24.0,9.0,30.44,NE,45,0.0,2.0,53,0.00,,,0.00,,2013-01-23 07:42:00,
2013-01-23 02:53:00,24.0,10.0,30.44,NW,307,1.0,7.0,54,0.00,,,0.00,,2013-01-23 07:53:00,
2013-01-23 03:02:00,24.0,10.0,30.45,West,264,1.0,6.0,54,0.00,,,0.00,,2013-01-23 08:02:00,
2013-01-23 03:13:00,24.0,10.0,30.45,West,264,1.0,6.0,54,0.00,,,0.00,,2013-01-23 08:13:00,
2013-01-23 03:23:00,24.0,10.0,30.45,WSW,249,3.0,11.0,55,0.00,,,0.00,,2013-01-23 08:23:00,
2013-01-23 03:33:00,24.0,11.0,30.45,West,278,1.0,11.0,56,0.00,,,0.00,,2013-01-23 08:33:00,
2013-01-23 03:43:00,24.0,11.0,30.45,West,278,1.0,11.0,56,0.00,,,0.00,,2013-01-23 08:43:00,
2013-01-23 03:53:00,24.0,10.0,30.45,West,261,5.0,11.0,54,0.00,,,0.00,,2013-01-23 08:53:00,
2013-01-23 04:03:00,24.0,11.0,30.45,South,169,1.0,5.0,56,0.00,,,0.00,,2013-01-23 09:03:00,
2013-01-23 04:12:00,24.0,11.0,30.45,South,169,1.0,5.0,56,0.00,,,0.00,,2013-01-23 09:12:00,
2013-01-23 04:22:00,24.0,11.0,30.45,WSW,240,5.0,13.0,56,0.00,,,0.00,,2013-01-23 09:22:00,
2013-01-23 04:33:00,24.0,11.0,30.45,SW,234,3.0,11.0,56,0.00,,,0.00,,2013-01-23 09:33:00,
2013-01-23 04:43:00,24.0,11.0,30.45,SW,234,3.0,11.0,56,0.00,,,0.00,,2013-01-23 09:43:00,
2013-01-23 04:53:00,24.0,12.0,30.44,WSW,246,2.0,6.0,59,0.00,,,0.00,,2013-01-23 09:53:00,
2013-01-23 05:03:00,24.0,12.0,30.44,West,261,4.0,13.0,60,0.00,,,0.00,,2013-01-23 10:03:00,
2013-01-23 05:12:00,24.0,12.0,30.44,West,261,4.0,13.0,60,0.00,,,0.00,,2013-01-23 10:12:00,
2013-01-23 05:23:00,24.0,12.0,30.43,WSW,254,4.0,11.0,59,0.00,,,0.00,,2013-01-23 10:23:00,
2013-01-23 05:33:00,24.0,13.0,30.43,WSW,252,6.0,11.0,62,0.00,,,0.00,,2013-01-23 10:33:00,
2013-01-23 05:43:00,24.0,13.0,30.43,WSW,252,6.0,11.0,62,0.00,,,0.00,,2013-01-23 10:43:00,
2013-01-23 05:53:00,24.0,14.0,30.44,West,269,6.0,12.0,64,0.00,,,0.00,,2013-01-23 10:53:00,
2013-01-23 06:03:00,24.0,13.0,30.44,West,281,8.0,14.0,63,0.00,,,0.00,,2013-01-23 11:03:00,
2013-01-23 06:12:00,24.0,13.0,30.44,West,281,8.0,14.0,63,0.00,,,0.00,,2013-01-23 11:12:00,
2013-01-23 06:23:00,24.0,13.0,30.44,WNW,298,10.0,15.0,62,0.00,,,0.00,,2013-01-23 11:23:00,
2013-01-23 06:33:00,24.0,13.0,30.44,WNW,301,7.0,13.0,63,0.00,,,0.00,,2013-01-23 11:33:00,
2013-01-23 06:43:00,24.0,13.0,30.44,WNW,301,7.0,13.0,63,0.00,,,0.00,,2013-01-23 11:43:00,
2013-01-23 06:53:00,24.0,13.0,30.45,WSW,255,4.0,11.0,62,0.00,,,0.00,,2013-01-23 11:53:00,
2013-01-23 07:03:00,24.0,13.0,30.45,NW,308,0.0,6.0,61,0.00,,,0.00,,2013-01-23 12:03:00,
2013-01-23 07:13:00,24.0,13.0,30.45,NW,308,0.0,6.0,61,0.00,,,0.00,,2013-01-23 12:13:00,
2013-01-23 07:22:00,24.0,13.0,30.45,NE,34,0.0,3.0,62,0.00,,,0.00,,2013-01-23 12:22:00,
2013-01-23 07:33:00,24.0,13.0,30.46,SE,134,1.0,3.0,62,0.00,,,0.00,,2013-01-23 12:33:00,
2013-01-23 07:43:00,24.0,13.0,30.46,SE,134,1.0,3.0,62,0.00,,,0.00,,2013-01-23 12:43:00,
2013-01-23 07:53:00,24.0,13.0,30.46,East,79,1.0,7.0,63,0.00,,,0.00,,2013-01-23 12:53:00,
2013-01-23 08:04:00,24.0,13.0,30.46,East,79,1.0,7.0,63,0.00,,,0.00,,2013-01-23 13:04:00,
2013-01-23 08:13:00,24.0,13.0,30.46,East,79,1.0,7.0,63,0.00,,,0.00,,2013-01-23 13:13:00,
2013-01-23 08:23:00,25.0,15.0,30.46,SE,140,1.0,8.0,64,0.00,,,0.00,,2013-01-23 13:23:00,
2013-01-23 08:33:00,25.0,15.0,30.46,NNW,330,5.0,19.0,64,0.00,,,0.00,,2013-01-23 13:33:00,
2013-01-23 08:43:00,25.0,15.0,30.46,NNW,330,5.0,19.0,64,0.00,,,0.00,,2013-01-23 13:43:00,
2013-01-23 08:53:00,26.0,16.0,30.46,SW,236,3.0,13.0,65,0.00,,,0.00,,2013-01-23 13:53:00,
2013-01-23 09:03:00,26.0,16.0,30.46,SW,229,5.0,14.0,66,0.00,,,0.00,,2013-01-23 14:03:00,
2013-01-23 09:12:00,26.0,16.0,30.46,SW,229,5.0,14.0,66,0.00,,,0.00,,2013-01-23 14:12:00,
2013-01-23 09:23:00,27.0,17.0,30.46,North,1,4.0,11.0,66,0.00,,,0.00,,2013-01-23 14:23:00,
2013-01-23 09:33:00,27.0,17.0,30.47,West,272,11.0,17.0,66,0.00,,,0.00,,2013-01-23 14:33:00,
2013-01-23 09:43:00,27.0,17.0,30.47,West,272,11.0,17.0,66,0.00,,,0.00,,2013-01-23 14:43:00,
2013-01-23 09:53:00,27.0,18.0,30.47,WSW,257,4.0,19.0,67,0.00,,,0.00,,2013-01-23 14:53:00,
2013-01-23 10:03:00,28.0,18.0,30.47,West,264,6.0,15.0,67,0.00,,,0.00,,2013-01-23 15:03:00,
2013-01-23 10:13:00,28.0,18.0,30.47,West,264,6.0,15.0,67,0.00,,,0.00,,2013-01-23 15:13:00,
2013-01-23 10:23:00,29.0,20.0,30.47,SW,220,2.0,11.0,68,0.00,,,0.00,,2013-01-23 15:23:00,
2013-01-23 10:33:00,30.0,20.0,30.48,ESE,122,4.0,16.0,66,0.00,,,0.00,,2013-01-23 15:33:00,
2013-01-23 10:43:00,30.0,20.0,30.48,ESE,122,4.0,16.0,66,0.00,,,0.00,,2013-01-23 15:43:00,
2013-01-23 10:53:00,30.0,20.0,30.48,SW,225,6.0,15.0,66,0.00,,,0.00,,2013-01-23 15:53:00,
2013-01-23 11:03:00,30.0,20.0,30.49,WNW,284,4.0,21.0,65,0.00,,,0.00,,2013-01-23 16:03:00,
2013-01-23 11:12:00,30.0,20.0,30.49,WNW,284,4.0,21.0,65,0.00,,,0.00,,2013-01-23 16:12:00,
2013-01-23 11:23:00,31.0,21.0,30.48,West,264,8.0,16.0,65,0.00,,,0.00,,2013-01-23 16:23:00,
2013-01-23 11:33:00,32.0,22.0,30.47,North,359,5.0,19.0,65,0.00,,,0.00,,2013-01-23 16:33:00,
2013-01-23 11:43:00,32.0,22.0,30.47,North,359,5.0,19.0,65,0.00,,,0.00,,2013-01-23 16:43:00,
2013-01-23 11:53:00,32.0,21.0,30.47,WSW,258,7.0,17.0,64,0.00,,,0.00,,2013-01-23 16:53:00,
2013-01-23 12:03:00,33.0,22.0,30.46,SSW,199,2.0,16.0,64,0.00,,,0.00,,2013-01-23 17:03:00,
2013-01-23 12:12:00,33.0,22.0,30.46,SSW,199,2.0,16.0,64,0.00,,,0.00,,2013-01-23 17:12:00,
2013-01-23 12:23:00,33.0,22.0,30.45,North,360,6.0,25.0,64,0.00,,,0.00,,2013-01-23 17:23:00,
2013-01-23 12:33:00,34.0,23.0,30.44,SW,232,8.0,20.0,65,0.00,,,0.00,,2013-01-23 17:33:00,
2013-01-23 12:43:00,34.0,23.0,30.44,SW,232,8.0,20.0,65,0.00,,,0.00,,2013-01-23 17:43:00,
2013-01-23 12:53:00,35.0,23.0,30.42,West,274,5.0,18.0,62,0.00,,,0.00,,2013-01-23 17:53:00,
2013-01-23 13:03:00,35.0,23.0,30.42,South,189,3.0,18.0,60,0.00,,,0.00,,2013-01-23 18:03:00,
2013-01-23 13:12:00,35.0,23.0,30.42,South,189,3.0,18.0,60,0.00,,,0.00,,2013-01-23 18:12:00,
2013-01-23 13:23:00,36.0,23.0,30.40,South,187,2.0,11.0,60,0.00,,,0.00,,2013-01-23 18:23:00,
2013-01-23 13:33:00,36.0,23.0,30.40,South,187,2.0,11.0,60,0.00,,,0.00,,2013-01-23 18:33:00,
2013-01-23 13:43:00,36.0,23.0,30.38,NNE,27,1.0,6.0,59,0.00,,,0.00,,2013-01-23 18:43:00,
2013-01-23 13:53:00,37.0,24.0,30.37,East,82,2.0,6.0,58,0.00,,,0.00,,2013-01-23 18:53:00,
2013-01-23 14:03:00,38.0,24.0,30.37,WSW,239,7.0,14.0,56,0.00,,,0.00,,2013-01-23 19:03:00,
2013-01-23 14:13:00,38.0,24.0,30.37,WSW,239,7.0,14.0,56,0.00,,,0.00,,2013-01-23 19:13:00,
2013-01-23 14:23:00,39.0,25.0,30.36,SE,139,3.0,12.0,56,0.00,,,0.00,,2013-01-23 19:23:00,
2013-01-23 14:33:00,39.0,24.0,30.35,NNE,28,2.0,5.0,54,0.00,,,0.00,,2013-01-23 19:33:00,
2013-01-23 14:43:00,39.0,24.0,30.35,NNE,28,2.0,5.0,54,0.00,,,0.00,,2013-01-23 19:43:00,
2013-01-23 14:53:00,39.0,24.0,30.35,NNE,28,2.0,5.0,54,0.00,,,0.00,,2013-01-23 19:53:00,
2013-01-23 15:03:00,40.0,25.0,30.35,East,92,3.0,11.0,54,0.00,,,0.00,,2013-01-23 20:03:00,
2013-01-23 15:13:00,40.0,25.0,30.35,East,92,3.0,11.0,54,0.00,,,0.00,,2013-01-23 20:13:00,
2013-01-23 15:23:00,40.0,24.0,30.35,ENE,68,2.0,16.0,53,0.00,,,0.00,,2013-01-23 20:23:00,
2013-01-23 15:33:00,41.0,26.0,30.34,SSW,200,3.0,10.0,54,0.00,,,0.00,,2013-01-23 20:33:00,
2013-01-23 15:43:00,41.0,26.0,30.34,SSW,200,3.0,10.0,54,0.00,,,0.00,,2013-01-23 20:43:00,
2013-01-23 15:54:00,41.0,25.0,30.34,NE,49,3.0,8.0,52,0.00,,,0.00,,2013-01-23 20:54:00,
2013-01-23 16:03:00,42.0,25.0,30.33,SSE,147,1.0,8.0,51,0.00,,,0.00,,2013-01-23 21:03:00,
2013-01-23 16:12:00,42.0,25.0,30.33,SSE,147,1.0,8.0,51,0.00,,,0.00,,2013-01-23 21:12:00,
2013-01-23 16:23:00,42.0,25.0,30.33,SSE,147,1.0,8.0,51,0.00,,,0.00,,2013-01-23 21:23:00,
2013-01-23 16:33:00,43.0,26.0,30.33,NNW,341,0.0,5.0,50,0.00,,,0.00,,2013-01-23 21:33:00,
2013-01-23 16:43:00,43.0,26.0,30.33,NNW,341,0.0,5.0,50,0.00,,,0.00,,2013-01-23 21:43:00,
2013-01-23 16:53:00,43.0,26.0,30.32,ENE,59,1.0,8.0,50,0.00,,,0.00,,2013-01-23 21:53:00,
2013-01-23 17:03:00,43.0,26.0,30.32,South,182,2.0,9.0,50,0.00,,,0.00,,2013-01-23 22:03:00,
2013-01-23 17:13:00,43.0,26.0,30.32,South,182,2.0,9.0,50,0.00,,,0.00,,2013-01-23 22:13:00,
2013-01-23 17:23:00,42.0,25.0,30.33,South,186,3.0,8.0,51,0.00,,,0.00,,2013-01-23 22:23:00,
2013-01-23 17:33:00,41.0,25.0,30.32,SSW,206,4.0,9.0,52,0.00,,,0.00,,2013-01-23 22:33:00,
2013-01-23 17:43:00,41.0,25.0,30.32,SSW,206,4.0,9.0,52,0.00,,,0.00,,2013-01-23 22:43:00,
2013-01-23 17:53:00,39.0,24.0,30.33,ESE,120,3.0,13.0,54,0.00,,,0.00,,2013-01-23 22:53:00,
2013-01-23 18:03:00,39.0,24.0,30.33,ESE,120,3.0,13.0,54,0.00,,,0.00,,2013-01-23 23:03:00,
2013-01-23 18:13:00,39.0,24.0,30.33,ESE,120,3.0,13.0,54,0.00,,,0.00,,2013-01-23 23:13:00,
2013-01-23 18:23:00,38.0,24.0,30.33,South,184,0.0,4.0,56,0.00,,,0.00,,2013-01-23 23:23:00,
2013-01-23 18:33:00,37.0,23.0,30.34,NNE,20,0.0,3.0,57,0.00,,,0.00,,2013-01-23 23:33:00,
2013-01-23 18:43:00,37.0,23.0,30.34,NNE,20,0.0,3.0,57,0.00,,,0.00,,2013-01-23 23:43:00,
2013-01-23 18:53:00,36.0,23.0,30.33,South,191,0.0,2.0,58,0.00,,,0.00,,2013-01-23 23:53:00,
2013-01-23 19:03:00,36.0,23.0,30.33,South,191,0.0,2.0,60,0.00,,,0.00,,2013-01-24 00:03:00,
2013-01-23 19:12:00,36.0,23.0,30.33,South,191,0.0,2.0,60,0.00,,,0.00,,2013-01-24 00:12:00,
2013-01-23 19:22:00,36.0,23.0,30.33,South,191,0.0,2.0,60,0.00,,,0.00,,2013-01-24 00:22:00,
2013-01-23 19:33:00,35.0,22.0,30.33,SE,144,1.0,4.0,59,0.00,,,0.00,,2013-01-24 00:33:00,
2013-01-23 19:43:00,35.0,22.0,30.33,SE,144,1.0,4.0,59,0.00,,,0.00,,2013-01-24 00:43:00,
2013-01-23 19:53:00,35.0,23.0,30.32,SSE,165,1.0,8.0,60,0.00,,,0.00,,2013-01-24 00:53:00,
2013-01-23 20:03:00,34.0,22.0,30.32,SSE,149,0.0,5.0,60,0.00,,,0.00,,2013-01-24 01:03:00,
2013-01-23 20:12:00,34.0,22.0,30.32,SSE,149,0.0,5.0,60,0.00,,,0.00,,2013-01-24 01:12:00,
2013-01-23 20:23:00,34.0,22.0,30.32,SE,131,1.0,8.0,61,0.00,,,0.00,,2013-01-24 01:23:00,
2013-01-23 20:33:00,34.0,22.0,30.32,ESE,114,0.0,4.0,62,0.00,,,0.00,,2013-01-24 01:33:00,
2013-01-23 20:43:00,34.0,22.0,30.32,ESE,114,0.0,4.0,62,0.00,,,0.00,,2013-01-24 01:43:00,
2013-01-23 20:53:00,34.0,23.0,30.32,SE,135,3.0,7.0,63,0.00,,,0.00,,2013-01-24 01:53:00,
2013-01-23 21:03:00,33.0,22.0,30.32,SSE,162,0.0,8.0,64,0.00,,,0.00,,2013-01-24 02:03:00,
2013-01-23 21:12:00,33.0,22.0,30.32,SSE,162,0.0,8.0,64,0.00,,,0.00,,2013-01-24 02:12:00,
2013-01-23 21:23:00,33.0,23.0,30.32,South,176,1.0,7.0,66,0.00,,,0.00,,2013-01-24 02:23:00,
2013-01-23 21:33:00,33.0,23.0,30.32,South,181,1.0,6.0,66,0.00,,,0.00,,2013-01-24 02:33:00,
2013-01-23 21:42:00,33.0,23.0,30.32,South,181,1.0,6.0,66,0.00,,,0.00,,2013-01-24 02:42:00,
2013-01-23 21:52:00,33.0,23.0,30.32,South,181,1.0,6.0,66,0.00,,,0.00,,2013-01-24 02:52:00,
2013-01-23 22:03:00,33.0,24.0,30.31,South,185,0.0,3.0,68,0.00,,,0.00,,2013-01-24 03:03:00,
2013-01-23 22:12:00,33.0,24.0,30.31,South,185,0.0,3.0,68,0.00,,,0.00,,2013-01-24 03:12:00,
2013-01-23 22:22:00,33.0,24.0,30.31,South,188,1.0,6.0,69,0.00,,,0.00,,2013-01-24 03:22:00,
2013-01-23 22:33:00,33.0,25.0,30.30,ESE,108,0.0,9.0,71,0.00,,,0.00,,2013-01-24 03:33:00,
2013-01-23 22:43:00,33.0,25.0,30.30,ESE,108,0.0,9.0,71,0.00,,,0.00,,2013-01-24 03:43:00,
2013-01-23 22:53:00,34.0,26.0,30.30,South,191,3.0,10.0,71,0.00,,,0.00,,2013-01-24 03:53:00,
2013-01-23 23:03:00,34.0,25.0,30.29,SSE,157,5.0,10.0,70,0.00,,,0.00,,2013-01-24 04:03:00,
2013-01-23 23:12:00,34.0,25.0,30.29,SSE,157,5.0,10.0,70,0.00,,,0.00,,2013-01-24 04:12:00,
2013-01-23 23:22:00,35.0,26.0,30.29,SE,145,3.0,16.0,70,0.00,,,0.00,,2013-01-24 04:22:00,
2013-01-23 23:33:00,35.0,26.0,30.28,SSE,164,1.0,10.0,70,0.00,,,0.00,,2013-01-24 04:33:00,
2013-01-23 23:42:00,35.0,26.0,30.28,SSE,164,1.0,10.0,70,0.00,,,0.00,,2013-01-24 04:42:00,
2013-01-23 23:53:00,35.0,26.0,30.28,SSE,155,2.0,13.0,70,0.00,,,0.00,,2013-01-24 04:53:00,